Wind_Speed
9 9 9 9 9 9 9 10 10 9 8 5 4 4 5 4 3 1 1 2 2 3 3 2 2 2 2 1 0 0 2 3 4 5 6 6 7 8 8 9 9 10 10 10 10 9 9 8 8
12 11 11 11 10 9 10 13 12 10 8 6 2 3 4 3 2 2 3 3 2 3 3 2 2 2 1 1 1 1 2 4 5 6 6 7 8 8 9 9 10 10 10 11 11 11 10 9 8
15 14 13 12 11 10 11 12 13 11 11 9 6 4 5 3 3 3 3 3 2 2 2 2 2 1 1 2 2 3 3 5 5 6 7 7 8 9 10 10 11 11 11 11 12 12 11 10 8
17 16 15 13 12 12 14 13 14 14 14 15 10 7 8 5 5 4 3 2 2 2 1 1 1 2 2 3 4 4 5 6 7 8 8 9 10 10 11 11 12 12 12 12 13 12 12 11 9
19 18 16 14 14 16 17 16 15 18 18 15 13 11 10 7 5 5 3 2 2 1 1 1 2 3 4 4 5 6 7 8 9 9 10 11 11 12 13 13 14 14 14 14 14 13 13 12 11
20 19 16 14 16 18 19 18 19 20 20 17 16 14 10 8 7 6 4 3 2 1 2 3 4 5 6 6 7 8 9 10 11 12 13 13 14 14 15 15 16 16 16 16 16 15 15 14 13
19 18 17 15 17 20 19 19 21 22 24 24 21 16 9 7 8 8 6 4 3 3 4 5 6 7 7 8 9 10 12 13 14 15 16 16 16 17 18 18 18 18 18 18 18 18 17 16 15
18 18 17 17 20 22 21 19 21 23 25 25 23 20 17 11 10 9 8 5 4 5 6 7 8 9 9 10 11 12 14 15 16 17 17 17 18 18 19 20 20 20 20 20 20 20 20 18 17
16 16 16 20 22 24 22 22 24 25 24 24 22 19 19 15 13 11 9 7 7 7 8 9 10 11 11 11 13 14 15 16 17 17 17 17 17 18 19 19 19 19 20 19 19 20 21 20 19
13 13 15 19 21 23 23 25 27 26 26 26 23 20 20 18 15 12 10 9 8 9 9 11 12 12 12 13 13 14 15 16 17 17 17 17 17 17 17 17 17 18 18 18 19 19 20 20 20
8 8 11 15 17 20 22 24 26 28 28 26 24 23 21 20 18 15 13 10 9 9 10 11 12 12 13 13 14 14 15 16 16 16 16 15 15 15 16 16 16 17 17 18 18 17 17 18 19
7 6 7 11 14 18 21 21 23 25 26 25 24 22 21 18 16 16 14 11 9 9 10 11 11 12 12 13 13 14 14 14 14 14 14 14 14 14 14 14 15 15 15 15 16 16 16 17 17
11 9 8 9 12 15 17 19 21 22 23 23 23 23 20 18 16 14 14 11 10 11 11 12 12 12 12 13 13 13 13 12 12 13 13 13 14 14 14 14 15 15 14 14 14 14 15 16 16
11 11 11 11 13 14 16 17 18 19 19 17 18 20 19 17 15 15 12 10 10 11 11 11 11 11 12 12 12 12 12 11 11 11 12 12 13 13 13 14 14 14 15 15 15 15 15 16 16
10 12 12 13 13 12 13 14 15 15 16 17 17 18 17 16 14 13 11 10 11 11 10 10 10 11 11 10 11 10 9 9 10 11 11 12 12 12 12 13 13 14 14 15 15 15 15 16 16
12 13 14 14 14 13 12 12 13 13 13 14 13 11 12 14 11 10 9 11 11 10 10 11 10 10 10 9 8 8 8 9 10 11 11 11 12 12 12 12 13 13 13 13 14 14 15 16 16
13 15 15 15 14 14 12 12 14 13 13 12 11 9 9 9 9 9 8 11 11 11 11 10 9 8 8 7 7 7 7 8 9 9 9 9 10 10 10 10 11 11 12 12 13 13 14 15 16
15 15 15 15 14 14 13 13 14 14 12 10 8 5 6 5 7 8 7 8 10 9 9 8 6 6 5 5 5 6 6 7 7 7 7 8 9 9 9 9 10 10 11 11 11 11 12 13 14
15 15 15 15 14 13 13 13 14 13 12 10 7 4 1 2 5 6 6 7 8 7 7 7 4 4 4 3 3 4 4 5 6 6 7 7 8 8 8 9 9 9 10 10 10 10 11 12 13
14 15 16 15 14 14 13 12 11 11 11 10 8 6 4 2 2 5 6 6 6 6 5 5 3 2 2 2 2 2 3 4 5 6 7 7 7 8 8 9 9 9 9 9 9 10 10 11 11
13 15 16 15 14 13 11 10 9 8 10 10 9 7 5 5 3 2 3 6 6 5 5 4 4 2 2 1 1 2 3 4 5 6 7 7 8 8 9 9 10 10 10 10 10 11 11 11 12
13 12 12 13 13 12 9 7 5 7 9 10 9 8 8 7 6 5 5 6 6 5 5 5 4 3 2 1 1 2 3 4 5 6 7 8 9 9 10 10 10 11 11 11 12 12 13 13 13
11 10 9 10 11 9 5 5 5 6 8 9 9 8 8 8 7 7 7 6 6 5 5 5 4 3 1 1 2 2 3 5 6 7 9 10 10 11 11 11 11 12 12 13 13 14 14 15 15
10 10 8 7 8 7 4 5 6 6 8 8 9 8 8 8 7 7 7 7 6 5 5 4 3 2 1 1 2 3 4 6 7 8 9 10 11 12 12 13 13 14 14 15 16 16 17 17 18
10 10 9 7 6 6 3 3 5 5 7 8 8 7 7 7 6 5 5 5 5 4 3 2 2 1 1 2 3 4 6 7 8 9 9 10 11 12 13 14 14 15 16 17 18 18 19 19 20
10 11 11 9 8 7 4 0 2 4 5 6 6 6 5 5 4 3 2 2 3 3 2 2 1 1 2 3 4 6 7 8 9 10 11 11 12 13 13 14 15 16 18 19 20 20 21 22 22
11 11 12 11 10 9 6 2 1 2 4 5 4 3 3 3 2 1 1 2 2 3 3 2 2 3 3 4 5 7 8 9 10 11 12 12 13 14 15 16 17 19 20 21 22 22 23 24 25
13 12 13 13 12 10 7 5 5 4 3 3 3 2 2 2 1 1 2 3 3 4 4 4 4 5 5 6 7 9 10 11 11 12 13 14 15 16 17 18 19 21 22 24 25 25 26 26 27
16 15 14 13 12 13 12 9 8 8 5 4 2 2 1 1 1 1 3 4 4 5 5 5 6 7 8 9 10 11 12 13 14 15 16 17 18 19 20 21 22 24 25 26 27 27 28 29 29
16 15 14 13 12 13 13 12 10 9 7 6 5 4 4 4 3 3 4 5 5 6 7 8 8 9 10 11 12 13 14 15 16 17 18 19 20 21 23 24 25 26 27 28 29 29 30 31 32
Wind_Direction
314 308 306 307 311 313 312 304 295 296 304 302 318 331 325 336 352 342 190 210 174 135 126 131 127 129 129 135 152 294 307 305 304 304 304 304 306 308 310 313 316 319 322 324 325 328 332 338 344
303 301 300 302 305 304 300 302 296 287 284 289 291 262 273 289 291 257 227 219 175 138 137 143 139 138 151 186 235 278 290 292 295 297 296 297 297 299 302 306 310 311 312 312 312 314 316 320 326
294 294 294 298 300 295 291 296 294 269 274 279 277 251 242 247 242 231 220 207 168 147 149 160 156 167 210 237 255 272 281 284 288 289 290 292 293 294 297 300 303 303 304 304 303 304 304 307 312
289 288 288 291 289 280 286 286 284 277 278 276 276 265 261 237 217 219 212 197 177 168 185 205 212 236 251 256 266 276 282 284 286 286 285 287 289 291 292 294 295 296 296 296 297 298 298 299 301
287 284 283 285 280 274 279 281 288 288 284 273 265 260 243 229 230 225 214 199 194 205 282 283 276 280 283 284 285 285 287 288 288 287 285 284 285 288 289 291 291 292 292 291 291 292 292 293 293
285 284 279 276 269 272 277 283 285 283 284 280 265 254 231 221 221 221 219 209 218 265 301 304 300 296 294 293 294 293 293 293 291 288 286 283 283 284 284 286 288 289 288 286 285 286 287 286 286
283 281 274 266 255 258 267 276 282 285 284 286 279 272 262 233 206 210 222 228 255 287 296 299 300 297 294 294 295 293 291 290 289 288 285 281 280 280 282 282 283 284 283 281 280 280 282 281 281
282 275 267 257 247 247 259 268 275 277 279 280 283 279 274 251 217 211 219 227 259 283 291 295 296 294 291 288 289 289 288 287 286 285 283 280 279 280 281 279 278 280 281 279 277 278 277 277 275
283 272 260 249 246 246 252 261 266 269 272 276 281 279 272 258 240 231 220 222 245 269 282 291 294 291 289 287 286 284 286 285 284 282 281 280 279 280 282 280 278 278 279 277 277 275 272 271 270
281 266 256 249 251 254 257 262 266 269 274 280 282 279 268 257 250 227 219 223 242 262 278 288 289 289 286 287 286 283 285 284 283 282 281 279 280 280 280 280 278 278 277 276 277 274 270 268 267
300 280 264 253 259 264 265 266 268 270 273 275 277 274 264 261 251 242 230 229 247 263 278 286 284 284 284 284 286 285 285 284 284 282 280 280 279 279 280 281 280 279 276 276 276 275 271 268 267
353 330 299 274 271 272 273 274 275 272 275 277 278 270 260 257 246 242 235 234 250 262 274 281 281 281 281 282 283 284 283 282 282 281 279 278 280 282 281 281 283 283 280 276 275 273 271 269 269
24 12 337 313 303 295 290 286 286 283 280 277 274 267 255 244 239 235 235 234 246 258 267 273 277 278 281 283 282 281 283 280 278 281 282 282 282 284 284 286 285 282 280 277 275 274 270 269 268
34 24 3 343 328 315 306 302 300 292 289 287 277 263 248 237 234 233 231 240 248 257 265 273 277 280 286 286 284 283 284 282 280 283 286 287 287 288 288 287 285 283 280 278 276 274 271 268 267
27 20 8 353 344 335 324 317 315 307 299 294 284 264 244 229 232 235 235 244 248 255 260 273 277 284 288 292 291 287 286 285 286 292 295 295 294 295 295 293 289 287 284 281 278 275 272 269 266
15 15 7 358 349 341 334 332 333 328 323 314 295 266 242 233 227 237 242 248 254 261 269 273 278 286 291 293 295 290 290 290 292 298 300 300 300 299 297 295 293 291 288 285 281 277 274 271 269
9 8 0 358 357 352 348 348 344 339 340 331 318 289 251 233 231 235 248 247 250 257 265 267 273 283 289 291 297 297 296 293 297 302 305 307 308 308 306 303 300 298 295 292 287 280 276 273 270
4 360 354 354 354 357 0 360 357 354 352 354 345 316 253 237 227 234 240 237 240 247 251 250 261 276 283 292 300 305 304 302 307 313 316 318 318 318 317 315 311 308 304 300 296 289 283 277 274
351 346 343 345 347 351 359 1 0 5 6 16 18 19 131 209 225 234 233 233 233 242 237 233 251 266 276 290 303 311 312 314 318 324 325 323 322 323 324 324 324 321 316 310 303 297 293 288 282
334 332 335 341 341 343 349 355 357 4 15 27 31 37 45 50 218 228 232 222 213 211 212 223 226 243 260 278 304 316 318 321 327 332 334 332 331 332 333 332 330 327 325 320 313 306 301 297 291
328 328 336 341 342 341 348 356 359 13 28 35 38 44 54 47 60 157 181 175 179 184 194 200 195 193 192 225 310 326 328 327 330 332 333 335 337 337 336 336 335 333 330 326 320 313 307 302 296
326 334 338 345 344 338 337 355 31 45 45 47 46 51 59 71 80 98 129 143 151 160 172 175 171 166 170 226 314 325 327 329 333 336 337 336 335 336 336 336 335 333 329 326 321 315 310 305 300
322 323 328 338 343 344 4 47 63 56 57 58 55 53 59 70 79 97 110 121 126 138 148 150 150 156 175 270 307 320 330 338 343 344 343 340 336 334 334 335 333 330 328 325 321 316 311 306 302
320 315 317 329 338 350 24 67 64 60 63 64 62 60 64 68 77 96 110 116 124 133 137 140 144 161 231 298 328 340 343 344 346 346 343 338 335 335 335 333 330 328 326 324 321 316 311 307 303
316 315 306 309 326 348 357 68 54 61 64 65 62 64 68 69 73 86 104 122 139 147 153 159 168 203 287 320 341 346 346 345 345 344 341 338 338 336 332 328 325 324 323 322 320 317 314 310 306
309 309 302 301 315 330 335 267 61 71 64 61 61 63 69 78 79 87 115 147 164 178 187 190 208 266 309 334 341 342 342 340 339 338 338 336 334 330 326 324 323 321 320 319 318 317 315 312 309
301 297 292 289 295 307 323 294 286 39 47 47 57 69 78 87 106 147 199 208 209 223 235 244 268 290 311 326 333 336 335 332 332 333 332 329 326 324 322 321 320 319 318 318 317 315 313 311 309
295 287 283 280 279 287 286 284 288 318 338 3 17 44 74 81 141 215 235 244 246 250 254 264 279 294 306 316 322 326 326 325 325 324 323 321 319 317 317 318 318 317 317 317 316 314 312 311 308
285 284 274 273 272 275 278 277 283 298 301 318 329 332 349 25 355 268 257 266 269 267 269 276 284 293 300 307 311 314 316 317 317 318 319 318 316 314 314 314 314 314 315 315 314 313 310 309 307
283 281 271 265 268 271 274 282 287 293 303 310 317 318 319 325 323 304 281 278 279 278 280 285 290 294 297 300 303 305 309 311 311 312 313 313 313 312 311 311 312 312 313 313 312 311 309 308 307
Height
5924 5923 5923 5922 5922 5922 5920 5919 5916 5913 5912 5910 5909 5910 5912 5914 5915 5918 5916 5914 5914 5913 5913 5914 5914 5915 5915 5915 5916 5916 5916 5916 5915 5915 5915 5914 5914 5913 5913 5912 5911 5911 5910 5909 5908 5908 5908 5907 5907
5923 5922 5922 5921 5920 5920 5919 5917 5914 5911 5910 5907 5906 5909 5911 5912 5913 5914 5914 5913 5912 5912 5913 5913 5914 5914 5914 5915 5915 5915 5915 5915 5914 5914 5914 5913 5913 5912 5912 5911 5911 5910 5909 5908 5908 5907 5907 5907 5906
5921 5920 5920 5920 5918 5917 5916 5914 5911 5907 5905 5903 5903 5907 5909 5911 5912 5912 5912 5912 5912 5912 5912 5913 5913 5913 5913 5913 5914 5913 5913 5913 5913 5912 5912 5912 5911 5911 5910 5910 5909 5909 5908 5907 5906 5906 5906 5906 5906
5918 5918 5918 5918 5916 5914 5912 5911 5908 5905 5902 5901 5903 5905 5908 5910 5910 5910 5910 5910 5910 5911 5911 5911 5911 5912 5912 5912 5912 5912 5912 5911 5911 5911 5910 5910 5909 5909 5908 5908 5907 5907 5906 5906 5905 5904 5904 5904 5904
5915 5915 5916 5916 5913 5911 5908 5906 5905 5902 5901 5900 5899 5902 5904 5907 5908 5908 5909 5909 5909 5909 5910 5910 5910 5910 5910 5910 5910 5910 5910 5909 5909 5909 5908 5908 5907 5906 5906 5906 5905 5905 5904 5903 5903 5903 5903 5903 5903
5912 5912 5913 5913 5911 5907 5904 5902 5900 5898 5897 5898 5899 5899 5900 5904 5906 5906 5907 5907 5907 5908 5908 5908 5908 5908 5908 5908 5908 5907 5907 5907 5906 5906 5905 5905 5904 5904 5903 5903 5902 5902 5901 5901 5901 5900 5900 5900 5901
5909 5909 5909 5909 5907 5904 5901 5898 5896 5895 5896 5897 5898 5898 5899 5902 5903 5904 5905 5905 5906 5906 5906 5906 5906 5906 5905 5905 5905 5905 5905 5904 5903 5903 5902 5902 5901 5901 5900 5900 5899 5899 5898 5898 5898 5897 5897 5898 5898
5905 5906 5905 5904 5903 5900 5897 5895 5894 5893 5893 5894 5895 5897 5898 5900 5901 5901 5902 5903 5904 5904 5904 5904 5904 5903 5903 5903 5903 5902 5902 5901 5900 5899 5898 5898 5897 5897 5896 5896 5895 5895 5895 5894 5894 5894 5894 5894 5895
5902 5902 5901 5899 5898 5896 5894 5892 5892 5891 5891 5891 5893 5894 5896 5897 5897 5898 5898 5900 5901 5902 5902 5902 5902 5901 5901 5900 5900 5899 5898 5897 5896 5895 5894 5894 5893 5893 5892 5892 5891 5891 5890 5890 5890 5890 5890 5890 5891
5899 5898 5897 5896 5894 5892 5891 5890 5888 5888 5888 5888 5889 5890 5891 5892 5893 5894 5894 5896 5897 5899 5899 5899 5899 5899 5898 5898 5897 5896 5895 5894 5893 5891 5891 5890 5889 5889 5888 5888 5887 5887 5887 5887 5887 5886 5886 5886 5887
5896 5895 5894 5892 5891 5889 5888 5887 5886 5885 5885 5886 5886 5887 5887 5887 5889 5891 5892 5893 5894 5896 5896 5896 5896 5895 5895 5894 5894 5893 5891 5890 5889 5888 5887 5886 5886 5885 5885 5884 5884 5883 5883 5883 5883 5883 5883 5883 5883
5895 5894 5892 5891 5889 5887 5885 5884 5883 5882 5882 5881 5882 5881 5880 5880 5884 5885 5887 5889 5891 5893 5894 5893 5893 5892 5892 5891 5890 5889 5888 5887 5886 5885 5884 5883 5883 5882 5882 5881 5880 5880 5879 5879 5879 5879 5879 5880 5880
5895 5893 5891 5889 5887 5885 5883 5880 5879 5878 5877 5876 5876 5876 5875 5877 5878 5880 5882 5885 5887 5889 5890 5890 5889 5889 5889 5888 5887 5886 5885 5884 5883 5882 5881 5880 5880 5879 5879 5878 5877 5877 5876 5876 5876 5876 5876 5876 5876
5894 5892 5890 5888 5885 5883 5880 5878 5876 5873 5872 5871 5871 5870 5872 5873 5875 5876 5879 5881 5883 5885 5885 5886 5886 5886 5885 5885 5884 5883 5882 5881 5880 5879 5879 5878 5877 5876 5876 5875 5874 5874 5873 5873 5873 5873 5873 5873 5873
5894 5892 5890 5887 5884 5881 5879 5876 5873 5870 5868 5867 5865 5864 5864 5868 5871 5872 5874 5877 5879 5880 5880 5881 5882 5882 5882 5881 5881 5880 5879 5878 5877 5877 5876 5875 5874 5874 5873 5872 5871 5871 5870 5870 5869 5869 5869 5869 5869
5893 5891 5889 5886 5883 5880 5879 5875 5871 5868 5865 5863 5860 5860 5862 5862 5865 5868 5870 5873 5875 5876 5877 5878 5879 5879 5879 5879 5878 5878 5877 5876 5875 5874 5873 5873 5872 5871 5870 5869 5868 5867 5867 5866 5866 5865 5865 5865 5865
5891 5889 5887 5885 5883 5880 5877 5873 5870 5866 5863 5860 5858 5857 5858 5860 5861 5863 5867 5869 5871 5873 5874 5875 5876 5876 5877 5876 5876 5876 5875 5874 5873 5872 5871 5870 5869 5868 5867 5866 5865 5864 5863 5863 5862 5862 5862 5861 5861
5890 5888 5886 5884 5882 5879 5876 5873 5869 5865 5861 5859 5857 5856 5857 5858 5860 5862 5863 5865 5868 5870 5871 5873 5874 5875 5875 5875 5874 5874 5873 5872 5871 5870 5869 5868 5867 5866 5865 5864 5863 5861 5860 5860 5859 5858 5858 5858 5857
5889 5887 5885 5884 5881 5879 5876 5873 5869 5866 5862 5859 5858 5856 5857 5857 5859 5860 5862 5864 5866 5868 5869 5871 5872 5873 5873 5873 5873 5872 5872 5871 5870 5869 5868 5867 5865 5864 5863 5861 5860 5859 5858 5857 5856 5855 5855 5854 5854
5888 5886 5884 5883 5881 5879 5876 5873 5870 5866 5863 5860 5859 5859 5858 5858 5857 5858 5861 5862 5864 5866 5869 5870 5871 5871 5872 5872 5872 5871 5871 5870 5868 5867 5866 5865 5863 5862 5860 5859 5858 5857 5855 5854 5853 5852 5851 5851 5851
5886 5885 5883 5882 5880 5878 5876 5874 5871 5867 5864 5862 5861 5860 5859 5858 5857 5858 5859 5861 5863 5866 5868 5869 5870 5870 5871 5871 5870 5870 5870 5869 5867 5866 5865 5863 5861 5860 5858 5857 5856 5854 5853 5852 5851 5849 5849 5848 5847
5885 5884 5882 5880 5878 5876 5875 5873 5871 5869 5866 5864 5863 5862 5861 5860 5860 5860 5860 5862 5864 5865 5867 5868 5869 5869 5870 5870 5869 5869 5868 5867 5866 5864 5863 5861 5859 5858 5857 5855 5854 5852 5851 5849 5848 5847 5845 5844 5844
5884 5882 5881 5879 5877 5875 5874 5873 5872 5869 5867 5866 5865 5863 5862 5862 5862 5862 5862 5863 5864 5865 5866 5867 5868 5868 5869 5869 5868 5868 5867 5866 5864 5863 5861 5859 5857 5856 5854 5853 5851 5850 5848 5847 5845 5844 5842 5841 5840
5882 5881 5880 5878 5876 5875 5874 5874 5872 5870 5868 5867 5866 5865 5864 5863 5863 5863 5864 5865 5865 5866 5866 5867 5867 5868 5868 5867 5867 5866 5865 5864 5863 5861 5859 5857 5855 5853 5851 5850 5848 5847 5845 5844 5842 5840 5839 5837 5836
5880 5879 5878 5877 5875 5875 5873 5873 5873 5870 5868 5867 5866 5865 5865 5864 5864 5865 5865 5865 5866 5866 5866 5867 5867 5867 5866 5866 5865 5864 5863 5862 5860 5859 5857 5855 5853 5851 5849 5848 5846 5844 5842 5840 5838 5836 5834 5833 5831
5878 5877 5876 5875 5873 5873 5872 5872 5872 5869 5868 5866 5866 5865 5865 5865 5865 5865 5865 5866 5866 5866 5866 5866 5865 5865 5865 5864 5863 5862 5861 5859 5858 5856 5855 5853 5851 5849 5847 5845 5843 5841 5839 5836 5834 5832 5829 5827 5825
5877 5875 5874 5873 5871 5870 5870 5870 5870 5869 5867 5866 5866 5866 5865 5865 5865 5865 5865 5865 5865 5865 5865 5864 5864 5863 5863 5862 5861 5860 5859 5857 5856 5854 5852 5850 5849 5847 5844 5842 5840 5837 5835 5832 5829 5827 5824 5822 5819
5874 5873 5872 5870 5869 5868 5867 5868 5868 5867 5866 5865 5865 5865 5864 5864 5864 5864 5864 5864 5863 5863 5863 5862 5862 5861 5861 5860 5859 5857 5856 5854 5853 5851 5849 5847 5845 5843 5841 5838 5836 5833 5830 5827 5824 5821 5819 5816 5813
5871 5870 5868 5867 5866 5865 5864 5867 5865 5865 5864 5864 5863 5863 5863 5862 5862 5862 5862 5861 5861 5861 5860 5860 5860 5859 5858 5857 5856 5854 5853 5851 5849 5847 5845 5843 5841 5839 5836 5834 5831 5828 5825 5822 5819 5815 5812 5809 5806
5866 5865 5865 5865 5864 5862 5861 5864 5862 5861 5861 5861 5861 5861 5860 5860 5860 5859 5859 5859 5858 5858 5857 5857 5856 5856 5855 5854 5852 5851 5849 5847 5845 5843 5841 5838 5836 5833 5831 5828 5825 5822 5819 5816 5812 5809 5805 5802 5798